Location: Culleoka
(33.1312°N, 96.4919°W)
Time: 20:40:55
(UTC+00:00)

Cosmos 1500 Rocket - Pass Details

Date: 09 July 2022
Orbit: 602 x 631 km, 82.5° (Epoch: 13 August)

Event Time Altitude Azimuth Distance (km) Brightness Sun altitude
Exits shadow 09:34:47 22° 284° (WNW) 1,364 5.0 -19.4°
Drops below altitude 10° 09:38:14 10° 335° (NNW) 2,015 6.4 -18.8°
Sets 09:40:54 0° 350° (N) 2,928 7.5 -18.4°
